Muncie, IN

7:32 AM EDT on March 29, 2017 (GMT -0400)
Delaware County-Johnson

Weather History for KMIE - October, 2011

Change the Weather History Date:

Tuesday, October 18, 2011

  Actual Average Record
Temperature  
Mean Temperature 46 °F 53 °F  
Max Temperature 48 °F 64 °F 82 °F (1965)
Min Temperature 44 °F 43 °F 27 °F (2015)
Degree Days  
Heating Degree Days 19 12  
Month to date heating degree days 131 178  
Since 1 July heating degree days 283 279  
Cooling Degree Days 0 0  
Month to date cooling degree days 2 13  
Year to date cooling degree days 1068 952  
Moisture  
Dew Point 42 °F    
Average Humidity 88    
Maximum Humidity 92    
Minimum Humidity 83    
Precipitation  
Precipitation 0.41 in 0.09 in 1.30 in (1975)
Month to date precipitation 0.72 1.75  
Year to date precipitation 35.01 32.62  
Sea Level Pressure  
Sea Level Pressure 29.80 in    
Wind  
Wind Speed 7 mph (North)    
Max Wind Speed 16 mph    
Max Gust Speed 21 mph    
Visibility 7 miles    
Events Rain , Thunderstorm    
T = Trace of Precipitation, MM = Missing Value Source: NWS Daily Summary

Daily Weather History Graph

Daily Weather History Graph

Search for Another Location

Airport or City:

Trip Planner

Search our weather history database for the weather conditions in past years. The results will help you decide how hot, cold, wet, or windy it might be!

Date:

Astronomy

Oct. 18, 2011 Rise Set
Actual Time 7:55 AM EDT 6:57 PM EDT
Civil Twilight 7:27 AM EDT 7:25 PM EDT
Nautical Twilight 6:56 AM EDT 7:56 PM EDT
Astronomical Twilight 6:24 AM EDT 8:28 PM EDT
Moon 11:37 PM EDT (10/18) 1:46 PM EDT (10/18)
Length of Visible Light 11h 57m
Length of Day
11h 02m
Waning Gibbous, 65% of the Moon is Illuminated
Oct 18
Waning Gibbous
Oct 19
Last Quarter
Oct 26
New
Nov 2
First Quarter
Nov 10
Full

Hourly Weather History & Observations

Time (EDT) Temp. Windchill Dew Point Humidity Pressure Visibility Wind Dir Wind Speed Gust Speed Precip Events Conditions
12:53 AM 45.0 °F 40.1 °F 39.9 °F 82% 29.88 in 10.0 mi West 9.2 mph - 0.02 in Rain Light Rain
1:53 AM 44.1 °F 39.0 °F 39.9 °F 85% 29.87 in 10.0 mi West 9.2 mph - 0.01 in   Overcast
2:53 AM 44.1 °F 40.1 °F 39.9 °F 85% 29.86 in 10.0 mi West 6.9 mph - 0.00 in   Overcast
3:53 AM 44.1 °F 40.8 °F 39.9 °F 85% 29.84 in 10.0 mi West 5.8 mph - 0.00 in   Overcast
4:53 AM 45.0 °F - 41.0 °F 86% 29.82 in 10.0 mi Calm Calm - N/A   Overcast
5:53 AM 45.0 °F 43.5 °F 41.0 °F 86% 29.82 in 10.0 mi WSW 3.5 mph - N/A   Overcast
6:53 AM 45.0 °F 42.6 °F 41.0 °F 86% 29.83 in 10.0 mi SW 4.6 mph - 0.00 in Rain Light Rain
8:53 AM 45.0 °F 42.6 °F 41.0 °F 86% 29.83 in 5.0 mi West 4.6 mph - 0.02 in Rain Light Rain
9:53 AM 45.0 °F 43.5 °F 42.1 °F 90% 29.82 in 8.0 mi NNW 3.5 mph - 0.00 in Rain Light Rain
10:53 AM 45.0 °F 42.6 °F 41.0 °F 86% 29.83 in 7.0 mi NNW 4.6 mph - 0.02 in Rain Light Rain
11:29 AM 44.6 °F 40.7 °F 42.8 °F 93% 29.83 in 10.0 mi North 6.9 mph - 0.00 in   Overcast
11:53 AM 45.0 °F 42.6 °F 42.1 °F 90% 29.85 in 5.0 mi NW 4.6 mph - 0.00 in   Overcast
12:03 PM 44.6 °F - 42.8 °F 93% 29.85 in 1.8 mi Calm Calm - 0.01 in Rain Light Rain
12:14 PM 44.6 °F - 41.0 °F 87% 29.84 in 1.5 mi Calm Calm - 0.04 in Rain Rain
12:27 PM 44.6 °F 43.1 °F 42.8 °F 93% 29.83 in 3.0 mi NNE 3.5 mph - 0.07 in Rain Rain
12:53 PM 46.0 °F 43.1 °F 43.0 °F 89% 29.81 in 10.0 mi ENE 5.8 mph - 0.08 in   Overcast
1:11 PM 46.4 °F 45.2 °F 42.8 °F 87% 29.80 in 10.0 mi NE 3.5 mph - N/A   Overcast
1:38 PM 46.4 °F 44.3 °F 42.8 °F 87% 29.84 in 2.0 mi South 4.6 mph - 0.04 in Rain Rain
1:44 PM 44.6 °F 42.2 °F 42.8 °F 93% 29.81 in 3.0 mi ESE 4.6 mph - 0.05 in Rain Rain
2:03 PM 46.4 °F 41.9 °F 44.6 °F 93% 29.78 in 5.0 mi NE 9.2 mph - 0.01 in Rain Light Rain
2:10 PM 46.4 °F 43.5 °F 44.6 °F 93% 29.78 in 8.0 mi NE 5.8 mph - 0.01 in Rain Light Rain
2:53 PM 46.9 °F - 44.1 °F 90% 29.77 in 10.0 mi NNE 4.6 mph - 0.01 in   Overcast
3:24 PM 46.4 °F 43.5 °F 42.8 °F 87% 29.77 in 10.0 mi NNE 5.8 mph - N/A   Overcast
3:48 PM 46.4 °F 43.5 °F 42.8 °F 87% 29.77 in 10.0 mi North 5.8 mph - N/A   Overcast
3:53 PM 46.9 °F - 42.1 °F 83% 29.78 in 10.0 mi North 4.6 mph - N/A   Overcast
4:44 PM 46.4 °F 41.9 °F 42.8 °F 87% 29.75 in 10.0 mi North 9.2 mph - N/A   Overcast
4:53 PM 46.9 °F - 43.0 °F 86% 29.76 in 10.0 mi North 9.2 mph - N/A   Overcast
5:02 PM 46.4 °F - 42.8 °F 87% 29.81 in 2.5 mi Calm Calm - 0.05 in Rain , Thunderstorm Heavy Thunderstorms and Rain
5:10 PM 44.6 °F 40.2 °F 42.8 °F 93% 29.78 in 4.0 mi North 8.1 mph - 0.06 in Rain , Thunderstorm Light Thunderstorms and Rain
5:29 PM 46.4 °F 45.2 °F 42.8 °F 87% 29.83 in 9.0 mi Variable 3.5 mph - 0.06 in   Overcast
5:38 PM 46.4 °F 44.3 °F 42.8 °F 87% 29.78 in 3.0 mi North 4.6 mph - 0.09 in Rain , Thunderstorm Thunderstorms and Rain
5:45 PM 46.4 °F 45.2 °F 42.8 °F 87% 29.79 in 2.5 mi North 3.5 mph - 0.10 in Rain , Thunderstorm Light Thunderstorms and Rain
5:53 PM 46.0 °F 41.9 °F 43.0 °F 89% 29.78 in 6.0 mi NE 8.1 mph - 0.10 in Rain Light Rain
6:33 PM 44.6 °F 40.7 °F 42.8 °F 93% 29.78 in 10.0 mi North 6.9 mph - 0.00 in Rain Light Rain
6:53 PM 45.0 °F 40.1 °F 42.1 °F 90% 29.77 in 9.0 mi North 9.2 mph - 0.00 in Rain Light Rain
7:43 PM 44.6 °F 41.4 °F 42.8 °F 93% 29.77 in 8.0 mi North 5.8 mph - 0.00 in   Overcast
7:53 PM 45.0 °F 41.2 °F 42.1 °F 90% 29.78 in 7.0 mi North 6.9 mph - 0.00 in   Overcast
8:28 PM 44.6 °F 40.2 °F 42.8 °F 93% 29.77 in 8.0 mi North 8.1 mph - N/A   Overcast
8:33 PM 44.6 °F 39.7 °F 42.8 °F 93% 29.78 in 8.0 mi North 9.2 mph - N/A   Overcast
8:53 PM 44.1 °F 38.6 °F 41.0 °F 89% 29.77 in 8.0 mi NNE 10.4 mph - N/A   Overcast
9:04 PM 44.6 °F 39.2 °F 41.0 °F 87% 29.77 in 8.0 mi NNE 10.4 mph - N/A   Overcast
9:26 PM 44.6 °F 40.2 °F 42.8 °F 93% 29.76 in 7.0 mi NNE 8.1 mph - N/A   Overcast
9:33 PM 44.6 °F 40.2 °F 42.8 °F 93% 29.76 in 6.0 mi NNE 8.1 mph - N/A   Overcast
9:53 PM 45.0 °F 39.3 °F 42.1 °F 90% 29.75 in 6.0 mi NNE 11.5 mph - N/A   Overcast
10:53 PM 45.0 °F 38.9 °F 42.1 °F 90% 29.74 in 4.0 mi NE 12.7 mph - 0.04 in Rain Light Rain
11:53 PM 45.0 °F 38.9 °F 42.1 °F 90% 29.69 in 6.0 mi NNE 12.7 mph - 0.03 in Rain Light Rain